Location: Be?chatów
(51.3665°N, 19.3745°E)
Time: 07:52:21
(UTC+00:00)

Cosmos 1707 - Pass Details

Date: 19 May 2025
Orbit: 422 x 430 km, 82.5° (Epoch: 16 June)

Event Time Altitude Azimuth Distance (km) Brightness Sun altitude
Exits shadow 22:53:35 26° 258° (WSW) 903 3.7 -18.6°
Maximum altitude 22:54:28 30° 288° (WNW) 819 3.8 -18.6°
Drops below altitude 10° 22:57:29 10° 351° (N) 1,553 6.3 -18.5°
Sets 22:59:44 0° 3° (N) 2,428 7.8 -18.5°
